Year,Month,Day,Hour,Minute,Value (Times are PST for temperature in C)
2018,10,19,00,00,7.40
2018,10,19,00,01,7.40
2018,10,19,00,02,7.40
2018,10,19,00,03,7.40
2018,10,19,00,04,7.40
2018,10,19,00,05,7.40
2018,10,19,00,06,7.40
2018,10,19,00,07,7.40
2018,10,19,00,08,7.40
2018,10,19,00,09,7.40
2018,10,19,00,10,7.40
2018,10,19,00,11,7.40
2018,10,19,00,12,7.40
2018,10,19,00,13,7.40
2018,10,19,00,14,7.30
2018,10,19,00,15,7.30
2018,10,19,00,16,7.30
2018,10,19,00,17,7.30
2018,10,19,00,18,7.30
2018,10,19,00,19,7.30
2018,10,19,00,20,7.30
2018,10,19,00,21,7.30
2018,10,19,00,22,7.30
2018,10,19,00,23,7.30
2018,10,19,00,24,7.30
2018,10,19,00,25,7.30
2018,10,19,00,26,7.30
2018,10,19,00,27,7.30
2018,10,19,00,28,7.30
2018,10,19,00,29,7.20
2018,10,19,00,30,7.20
2018,10,19,00,31,7.20
2018,10,19,00,32,7.20
2018,10,19,00,33,7.20
2018,10,19,00,34,7.10
2018,10,19,00,35,7.10
2018,10,19,00,36,7.10
2018,10,19,00,37,7.10
2018,10,19,00,38,7.10
2018,10,19,00,39,7.10
2018,10,19,00,40,7.10
2018,10,19,00,41,7.10
2018,10,19,00,42,7.00
2018,10,19,00,43,7.00
2018,10,19,00,44,7.00
2018,10,19,00,45,7.00
2018,10,19,00,46,6.90
2018,10,19,00,47,6.90
2018,10,19,00,48,6.90
2018,10,19,00,49,6.90
2018,10,19,00,50,6.90
2018,10,19,00,51,6.90
2018,10,19,00,52,6.80
2018,10,19,00,53,6.80
2018,10,19,00,54,6.80
2018,10,19,00,55,6.80
2018,10,19,00,56,6.70
2018,10,19,00,57,6.70
2018,10,19,00,58,6.70
2018,10,19,00,59,6.70
2018,10,19,01,00,6.70
2018,10,19,01,01,6.70
2018,10,19,01,02,6.60
2018,10,19,01,03,6.60
2018,10,19,01,04,6.60
2018,10,19,01,05,6.60
2018,10,19,01,06,6.60
2018,10,19,01,07,6.60
2018,10,19,01,08,6.60
2018,10,19,01,09,6.60
2018,10,19,01,10,6.60
2018,10,19,01,11,6.60
2018,10,19,01,12,6.60
2018,10,19,01,13,6.60
2018,10,19,01,14,6.60
2018,10,19,01,15,6.60
2018,10,19,01,16,6.60
2018,10,19,01,17,6.60
2018,10,19,01,18,6.60
2018,10,19,01,19,6.60
2018,10,19,01,20,6.60
2018,10,19,01,21,6.60
2018,10,19,01,22,6.60
2018,10,19,01,23,6.60
2018,10,19,01,24,6.60
2018,10,19,01,25,6.60
2018,10,19,01,26,6.60
2018,10,19,01,27,6.60
2018,10,19,01,28,6.50
2018,10,19,01,29,6.50
2018,10,19,01,30,6.40
2018,10,19,01,31,6.40
2018,10,19,01,32,6.30
2018,10,19,01,33,6.30
2018,10,19,01,34,6.30
2018,10,19,01,35,6.20
2018,10,19,01,36,6.20
2018,10,19,01,37,6.20
2018,10,19,01,38,6.10
2018,10,19,01,39,6.10
2018,10,19,01,40,6.10
2018,10,19,01,41,6.10
2018,10,19,01,42,6.10
2018,10,19,01,43,6.10
2018,10,19,01,44,6.10
2018,10,19,01,45,6.10
2018,10,19,01,46,6.10
2018,10,19,01,47,6.10
2018,10,19,01,48,6.10
2018,10,19,01,49,6.10
2018,10,19,01,50,6.10
2018,10,19,01,51,6.10
2018,10,19,01,52,6.10
2018,10,19,01,53,6.10
2018,10,19,01,54,6.10
2018,10,19,01,55,6.00
2018,10,19,01,56,6.00
2018,10,19,01,57,6.00
2018,10,19,01,58,5.90
2018,10,19,01,59,5.90
2018,10,19,02,00,5.90
2018,10,19,02,01,5.90
2018,10,19,02,02,5.80
2018,10,19,02,03,5.80
2018,10,19,02,04,5.70
2018,10,19,02,05,5.70
2018,10,19,02,06,5.70
2018,10,19,02,07,5.70
2018,10,19,02,08,5.70
2018,10,19,02,09,5.70
2018,10,19,02,10,5.80
2018,10,19,02,11,5.80
2018,10,19,02,12,5.90
2018,10,19,02,13,5.90
2018,10,19,02,14,5.90
2018,10,19,02,15,5.90
2018,10,19,02,16,5.90
2018,10,19,02,17,5.90
2018,10,19,02,18,5.90
2018,10,19,02,19,5.90
2018,10,19,02,20,6.00
2018,10,19,02,21,6.00
2018,10,19,02,22,6.00
2018,10,19,02,23,6.10
2018,10,19,02,24,6.10
2018,10,19,02,25,6.10
2018,10,19,02,26,6.00
2018,10,19,02,27,5.90
2018,10,19,02,28,5.90
2018,10,19,02,29,5.80
2018,10,19,02,30,5.70
2018,10,19,02,31,5.60
2018,10,19,02,32,5.50
2018,10,19,02,33,5.40
2018,10,19,02,34,5.30
2018,10,19,02,35,5.30
2018,10,19,02,36,5.20
2018,10,19,02,37,5.20
2018,10,19,02,38,5.20
2018,10,19,02,39,5.20
2018,10,19,02,40,5.20
2018,10,19,02,41,5.20
2018,10,19,02,42,5.20
2018,10,19,02,43,5.30
2018,10,19,02,44,5.30
2018,10,19,02,45,5.40
2018,10,19,02,46,5.40
2018,10,19,02,47,5.40
2018,10,19,02,48,5.50
2018,10,19,02,49,5.50
2018,10,19,02,50,5.50
2018,10,19,02,51,5.60
2018,10,19,02,52,5.60
2018,10,19,02,53,5.60
2018,10,19,02,54,5.60
2018,10,19,02,55,5.60
2018,10,19,02,56,5.50
2018,10,19,02,57,5.50
2018,10,19,02,58,5.40
2018,10,19,02,59,5.40
2018,10,19,03,00,5.30
2018,10,19,03,01,5.30
2018,10,19,03,02,5.20
2018,10,19,03,03,5.20
2018,10,19,03,04,5.20
2018,10,19,03,05,5.10
2018,10,19,03,06,5.10
2018,10,19,03,07,5.10
2018,10,19,03,08,5.10
2018,10,19,03,09,5.10
2018,10,19,03,10,5.10
2018,10,19,03,11,5.10
2018,10,19,03,12,5.10
2018,10,19,03,13,5.10
2018,10,19,03,14,5.10
2018,10,19,03,15,5.20
2018,10,19,03,16,5.20
2018,10,19,03,17,5.20
2018,10,19,03,18,5.20
2018,10,19,03,19,5.20
2018,10,19,03,20,5.20
2018,10,19,03,21,5.20
2018,10,19,03,22,5.20
2018,10,19,03,23,5.20
2018,10,19,03,24,5.20
2018,10,19,03,25,5.20
2018,10,19,03,26,5.20
2018,10,19,03,27,5.20
2018,10,19,03,28,5.20
2018,10,19,03,29,5.20
2018,10,19,03,30,5.20
2018,10,19,03,31,5.20
2018,10,19,03,32,5.20
2018,10,19,03,33,5.30
2018,10,19,03,34,5.30
2018,10,19,03,35,5.30
2018,10,19,03,36,5.30
2018,10,19,03,37,5.30
2018,10,19,03,38,5.30
2018,10,19,03,39,5.30
2018,10,19,03,40,5.40
2018,10,19,03,41,5.40
2018,10,19,03,42,5.40
2018,10,19,03,43,5.40
2018,10,19,03,44,5.40
2018,10,19,03,45,5.40
2018,10,19,03,46,5.40
2018,10,19,03,47,5.50
2018,10,19,03,48,5.50
2018,10,19,03,49,5.50
2018,10,19,03,50,5.50
2018,10,19,03,51,5.50
2018,10,19,03,52,5.60
2018,10,19,03,53,5.60
2018,10,19,03,54,5.60
2018,10,19,03,55,5.60
2018,10,19,03,56,5.60
2018,10,19,03,57,5.60
2018,10,19,03,58,5.60
2018,10,19,03,59,5.60
2018,10,19,04,00,5.60
2018,10,19,04,01,5.60
2018,10,19,04,02,5.60
2018,10,19,04,03,5.60
2018,10,19,04,04,5.60
2018,10,19,04,05,5.60
2018,10,19,04,06,5.50
2018,10,19,04,07,5.50
2018,10,19,04,08,5.50
2018,10,19,04,09,5.50
2018,10,19,04,10,5.40
2018,10,19,04,11,5.40
2018,10,19,04,12,5.40
2018,10,19,04,13,5.40
2018,10,19,04,14,5.40
2018,10,19,04,15,5.30
2018,10,19,04,16,5.30
2018,10,19,04,17,5.30
2018,10,19,04,18,5.20
2018,10,19,04,19,5.20
2018,10,19,04,20,5.20
2018,10,19,04,21,5.10
2018,10,19,04,22,5.10
2018,10,19,04,23,5.10
2018,10,19,04,24,5.00
2018,10,19,04,25,4.90
2018,10,19,04,26,4.90
2018,10,19,04,27,4.80
2018,10,19,04,28,4.70
2018,10,19,04,29,4.70
2018,10,19,04,30,4.60
2018,10,19,04,31,4.60
2018,10,19,04,32,4.60
2018,10,19,04,33,4.60
2018,10,19,04,34,4.70
2018,10,19,04,35,4.70
2018,10,19,04,36,4.80
2018,10,19,04,37,4.80
2018,10,19,04,38,4.80
2018,10,19,04,39,4.90
2018,10,19,04,40,4.90
2018,10,19,04,41,4.90
2018,10,19,04,42,5.00
2018,10,19,04,43,5.00
2018,10,19,04,44,5.00
2018,10,19,04,45,5.00
2018,10,19,04,46,5.10
2018,10,19,04,47,5.10
2018,10,19,04,48,5.10
2018,10,19,04,49,5.10
2018,10,19,04,50,5.00
2018,10,19,04,51,5.00
2018,10,19,04,52,5.00
2018,10,19,04,53,5.00
2018,10,19,04,54,4.90
2018,10,19,04,55,4.90
2018,10,19,04,56,4.90
2018,10,19,04,57,4.90
2018,10,19,04,58,4.90
2018,10,19,04,59,4.90
2018,10,19,05,00,4.90
2018,10,19,05,01,4.90
2018,10,19,05,02,4.90
2018,10,19,05,03,5.00
2018,10,19,05,04,5.00
2018,10,19,05,05,5.00
2018,10,19,05,06,5.00
2018,10,19,05,07,5.00
2018,10,19,05,08,5.00
2018,10,19,05,09,5.00
2018,10,19,05,10,4.90
2018,10,19,05,11,4.90
2018,10,19,05,12,4.90
2018,10,19,05,13,4.80
2018,10,19,05,14,4.80
2018,10,19,05,15,4.80
2018,10,19,05,16,4.80
2018,10,19,05,17,4.80
2018,10,19,05,18,4.80
2018,10,19,05,19,4.80
2018,10,19,05,20,4.80
2018,10,19,05,21,4.80
2018,10,19,05,22,4.80
2018,10,19,05,23,4.80
2018,10,19,05,24,4.80
2018,10,19,05,25,4.80
2018,10,19,05,26,4.80
2018,10,19,05,27,4.70
2018,10,19,05,28,4.70
2018,10,19,05,29,4.70
2018,10,19,05,30,4.70
2018,10,19,05,31,4.70
2018,10,19,05,32,4.70
2018,10,19,05,33,4.70
2018,10,19,05,34,4.70
2018,10,19,05,35,4.70
2018,10,19,05,36,4.70
2018,10,19,05,37,4.70
2018,10,19,05,38,4.70
2018,10,19,05,39,4.70
2018,10,19,05,40,4.70
2018,10,19,05,41,4.70
2018,10,19,05,42,4.70
2018,10,19,05,43,4.70
2018,10,19,05,44,4.70
2018,10,19,05,45,4.70
2018,10,19,05,46,4.70
2018,10,19,05,47,4.80
2018,10,19,05,48,4.80
2018,10,19,05,49,4.70
2018,10,19,05,50,4.70
2018,10,19,05,51,4.60
2018,10,19,05,52,4.50
2018,10,19,05,53,4.40
2018,10,19,05,54,4.30
2018,10,19,05,55,4.30
2018,10,19,05,56,4.20
2018,10,19,05,57,4.20
2018,10,19,05,58,4.20
2018,10,19,05,59,4.20
2018,10,19,06,00,4.20
2018,10,19,06,01,4.10
2018,10,19,06,02,4.10
2018,10,19,06,03,4.00
2018,10,19,06,04,4.00
2018,10,19,06,05,4.00
2018,10,19,06,06,4.10
2018,10,19,06,07,4.10
2018,10,19,06,08,4.10
2018,10,19,06,09,4.10
2018,10,19,06,10,4.10
2018,10,19,06,11,4.10
2018,10,19,06,12,4.00
2018,10,19,06,13,4.00
2018,10,19,06,14,4.00
2018,10,19,06,15,4.00
2018,10,19,06,16,4.00
2018,10,19,06,17,4.00
2018,10,19,06,18,4.00
2018,10,19,06,19,4.10
2018,10,19,06,20,4.10
2018,10,19,06,21,4.10
2018,10,19,06,22,4.10
2018,10,19,06,23,4.10
2018,10,19,06,24,4.10
2018,10,19,06,25,4.10
2018,10,19,06,26,4.10
2018,10,19,06,27,4.10
2018,10,19,06,28,4.10
2018,10,19,06,29,4.10
2018,10,19,06,30,4.00
2018,10,19,06,31,4.00
2018,10,19,06,32,3.90
2018,10,19,06,33,3.90
2018,10,19,06,34,3.80
2018,10,19,06,35,3.80
2018,10,19,06,36,3.80
2018,10,19,06,37,3.80
2018,10,19,06,38,3.70
2018,10,19,06,39,3.70
2018,10,19,06,40,3.70
2018,10,19,06,41,3.70
2018,10,19,06,42,3.70
2018,10,19,06,43,3.70
2018,10,19,06,44,3.70
2018,10,19,06,45,3.70
2018,10,19,06,46,3.70
2018,10,19,06,47,3.80
2018,10,19,06,48,3.80
2018,10,19,06,49,3.80
2018,10,19,06,50,3.90
2018,10,19,06,51,4.00
2018,10,19,06,52,4.00
2018,10,19,06,53,4.10
2018,10,19,06,54,4.10
2018,10,19,06,55,4.20
2018,10,19,06,56,4.20
2018,10,19,06,57,4.20
2018,10,19,06,58,4.20
2018,10,19,06,59,4.30
2018,10,19,07,00,4.30
2018,10,19,07,01,4.30
2018,10,19,07,02,4.30
2018,10,19,07,03,4.30
2018,10,19,07,04,4.30
2018,10,19,07,05,4.30
2018,10,19,07,06,4.40
2018,10,19,07,07,4.40
2018,10,19,07,08,4.50
2018,10,19,07,09,4.50
2018,10,19,07,10,4.50
2018,10,19,07,11,4.40
2018,10,19,07,12,4.40
2018,10,19,07,13,4.40
2018,10,19,07,14,4.40
2018,10,19,07,15,4.30
2018,10,19,07,16,4.30
2018,10,19,07,17,4.30
2018,10,19,07,18,4.20
2018,10,19,07,19,4.20
2018,10,19,07,20,4.20
2018,10,19,07,21,4.20
2018,10,19,07,22,4.20
2018,10,19,07,23,4.20
2018,10,19,07,24,4.20
2018,10,19,07,25,4.20
2018,10,19,07,26,4.20
2018,10,19,07,27,4.20
2018,10,19,07,28,4.20
2018,10,19,07,29,4.20
2018,10,19,07,30,4.20
2018,10,19,07,31,4.10
2018,10,19,07,32,4.10
2018,10,19,07,33,4.10
2018,10,19,07,34,4.10
2018,10,19,07,35,4.20
2018,10,19,07,36,4.20
2018,10,19,07,37,4.20
2018,10,19,07,38,4.20
2018,10,19,07,39,4.30
2018,10,19,07,40,4.30
2018,10,19,07,41,4.30
2018,10,19,07,42,4.30
2018,10,19,07,43,4.30
2018,10,19,07,44,4.30
2018,10,19,07,45,4.30
2018,10,19,07,46,4.40
2018,10,19,07,47,4.40
2018,10,19,07,48,4.40
2018,10,19,07,49,4.40
2018,10,19,07,50,4.40
2018,10,19,07,51,4.40
2018,10,19,07,52,4.40
2018,10,19,07,53,4.30
2018,10,19,07,54,4.30
2018,10,19,07,55,4.30
2018,10,19,07,56,4.30
2018,10,19,07,57,4.30
2018,10,19,07,58,4.30
2018,10,19,07,59,4.30
2018,10,19,08,00,4.30
2018,10,19,08,01,4.30
2018,10,19,08,02,4.30
2018,10,19,08,03,4.30
2018,10,19,08,04,4.30
2018,10,19,08,05,4.30
2018,10,19,08,06,4.40
2018,10,19,08,07,4.40
2018,10,19,08,08,4.40
2018,10,19,08,09,4.40
2018,10,19,08,10,4.40
2018,10,19,08,11,4.40
2018,10,19,08,12,4.30
2018,10,19,08,13,4.30
2018,10,19,08,14,4.20
2018,10,19,08,15,4.20
2018,10,19,08,16,4.10
2018,10,19,08,17,4.10
2018,10,19,08,18,4.10
2018,10,19,08,19,4.00
2018,10,19,08,20,4.00
2018,10,19,08,21,4.00
2018,10,19,08,22,4.00
2018,10,19,08,23,4.00
2018,10,19,08,24,4.00
2018,10,19,08,25,4.00
2018,10,19,08,26,4.00
2018,10,19,08,27,4.00
2018,10,19,08,28,4.00
2018,10,19,08,29,4.00
2018,10,19,08,30,4.00
2018,10,19,08,31,4.00
2018,10,19,08,32,4.10
2018,10,19,08,33,4.10
2018,10,19,08,34,4.10
2018,10,19,08,35,4.10
2018,10,19,08,36,4.10
2018,10,19,08,37,4.10
2018,10,19,08,38,4.10
2018,10,19,08,39,4.20
2018,10,19,08,40,4.20
2018,10,19,08,41,4.20
2018,10,19,08,42,4.20
2018,10,19,08,43,4.30
2018,10,19,08,44,4.30
2018,10,19,08,45,4.30
2018,10,19,08,46,4.40
2018,10,19,08,47,4.40
2018,10,19,08,48,4.50
2018,10,19,08,49,4.50
2018,10,19,08,50,4.60
2018,10,19,08,51,4.70
2018,10,19,08,52,4.70
2018,10,19,08,53,4.80
2018,10,19,08,54,4.80
2018,10,19,08,55,4.90
2018,10,19,08,56,4.90
2018,10,19,08,57,5.00
2018,10,19,08,58,5.10
2018,10,19,08,59,5.10
2018,10,19,09,00,5.20
2018,10,19,09,01,5.30
2018,10,19,09,02,5.30
2018,10,19,09,03,5.40
2018,10,19,09,04,5.40
2018,10,19,09,05,5.50
2018,10,19,09,06,5.50
2018,10,19,09,07,5.60
2018,10,19,09,08,5.70
2018,10,19,09,09,5.70
2018,10,19,09,10,5.80
2018,10,19,09,11,5.80
2018,10,19,09,12,5.90
2018,10,19,09,13,5.90
2018,10,19,09,14,6.00
2018,10,19,09,15,6.10
2018,10,19,09,16,6.10
2018,10,19,09,17,6.20
2018,10,19,09,18,6.20
2018,10,19,09,19,6.30
2018,10,19,09,20,6.30
2018,10,19,09,21,6.40
2018,10,19,09,22,6.40
2018,10,19,09,23,6.50
2018,10,19,09,24,6.60
2018,10,19,09,25,6.60
2018,10,19,09,26,6.70
2018,10,19,09,27,6.80
2018,10,19,09,28,6.80
2018,10,19,09,29,6.90
2018,10,19,09,30,7.00
2018,10,19,09,31,7.00
2018,10,19,09,32,7.10
2018,10,19,09,33,7.10
2018,10,19,09,34,7.20
2018,10,19,09,35,7.20
2018,10,19,09,36,7.30
2018,10,19,09,37,7.30
2018,10,19,09,38,7.40
2018,10,19,09,39,7.40
2018,10,19,09,40,7.50
2018,10,19,09,41,7.60
2018,10,19,09,42,7.60
2018,10,19,09,43,7.70
2018,10,19,09,44,7.80
2018,10,19,09,45,7.80
2018,10,19,09,46,7.90
2018,10,19,09,47,8.00
2018,10,19,09,48,8.10
2018,10,19,09,49,8.10
2018,10,19,09,50,8.20
2018,10,19,09,51,8.30
2018,10,19,09,52,8.40
2018,10,19,09,53,8.40
2018,10,19,09,54,8.50
2018,10,19,09,55,8.60
2018,10,19,09,56,8.70
2018,10,19,09,57,8.70
2018,10,19,09,58,8.80
2018,10,19,09,59,8.90
2018,10,19,10,00,8.90
2018,10,19,10,01,9.00
2018,10,19,10,02,9.10
2018,10,19,10,03,9.20
2018,10,19,10,04,9.20
2018,10,19,10,05,9.30
2018,10,19,10,06,9.40
2018,10,19,10,07,9.40
2018,10,19,10,08,9.50
2018,10,19,10,09,9.60
2018,10,19,10,10,9.70
2018,10,19,10,11,9.70
2018,10,19,10,12,9.80
2018,10,19,10,13,9.80
2018,10,19,10,14,9.90
2018,10,19,10,15,10.00
2018,10,19,10,16,10.10
2018,10,19,10,17,10.20
2018,10,19,10,18,10.30
2018,10,19,10,19,10.50
2018,10,19,10,20,10.60
2018,10,19,10,21,10.70
2018,10,19,10,22,10.80
2018,10,19,10,23,10.80
2018,10,19,10,24,10.80
2018,10,19,10,25,10.90
2018,10,19,10,26,10.90
2018,10,19,10,27,11.00
2018,10,19,10,28,11.00
2018,10,19,10,29,11.10
2018,10,19,10,30,11.20
2018,10,19,10,31,11.20
2018,10,19,10,32,11.20
2018,10,19,10,33,11.30
2018,10,19,10,34,11.30
2018,10,19,10,35,11.30
2018,10,19,10,36,11.30
2018,10,19,10,37,11.30
2018,10,19,10,38,11.30
2018,10,19,10,39,11.30
2018,10,19,10,40,11.40
2018,10,19,10,41,11.50
2018,10,19,10,42,11.50
2018,10,19,10,43,11.60
2018,10,19,10,44,11.60
2018,10,19,10,45,11.60
2018,10,19,10,46,11.60
2018,10,19,10,47,11.60
2018,10,19,10,48,11.70
2018,10,19,10,49,11.70
2018,10,19,10,50,11.80
2018,10,19,10,51,11.80
2018,10,19,10,52,11.90
2018,10,19,10,53,11.90
2018,10,19,10,54,12.00
2018,10,19,10,55,12.10
2018,10,19,10,56,12.10
2018,10,19,10,57,12.20
2018,10,19,10,58,12.20
2018,10,19,10,59,12.20
2018,10,19,11,00,12.30
2018,10,19,11,01,12.30
2018,10,19,11,02,12.40
2018,10,19,11,03,12.40
2018,10,19,11,04,12.50
2018,10,19,11,05,12.60
2018,10,19,11,06,12.70
2018,10,19,11,07,12.80
2018,10,19,11,08,12.90
2018,10,19,11,09,13.00
2018,10,19,11,10,13.10
2018,10,19,11,11,13.20
2018,10,19,11,12,13.20
2018,10,19,11,13,13.30
2018,10,19,11,14,13.30
2018,10,19,11,15,13.30
2018,10,19,11,16,13.30
2018,10,19,11,17,13.40
2018,10,19,11,18,13.40
2018,10,19,11,19,13.50
2018,10,19,11,20,13.50
2018,10,19,11,21,13.50
2018,10,19,11,22,13.40
2018,10,19,11,23,13.30
2018,10,19,11,24,13.20
2018,10,19,11,25,13.10
2018,10,19,11,26,12.90
2018,10,19,11,27,12.80
2018,10,19,11,28,12.70
2018,10,19,11,29,12.60
2018,10,19,11,30,12.50
2018,10,19,11,31,12.40
2018,10,19,11,32,12.40
2018,10,19,11,33,12.40
2018,10,19,11,34,12.40
2018,10,19,11,35,12.40
2018,10,19,11,36,12.30
2018,10,19,11,37,12.30
2018,10,19,11,38,12.30
2018,10,19,11,39,12.30
2018,10,19,11,40,12.30
2018,10,19,11,41,12.30
2018,10,19,11,42,12.20
2018,10,19,11,43,12.20
2018,10,19,11,44,12.20
2018,10,19,11,45,12.20
2018,10,19,11,46,12.20
2018,10,19,11,47,12.10
2018,10,19,11,48,12.10
2018,10,19,11,49,12.20
2018,10,19,11,50,12.20
2018,10,19,11,51,12.20
2018,10,19,11,52,12.30
2018,10,19,11,53,12.30
2018,10,19,11,54,12.20
2018,10,19,11,55,12.30
2018,10,19,11,56,12.30
2018,10,19,11,57,12.30
2018,10,19,11,58,12.30
2018,10,19,11,59,12.30
2018,10,19,12,00,12.30
2018,10,19,12,01,12.30
2018,10,19,12,02,12.30
2018,10,19,12,03,12.30
2018,10,19,12,04,12.30
2018,10,19,12,05,12.30
2018,10,19,12,06,12.30
2018,10,19,12,07,12.20
2018,10,19,12,08,12.20
2018,10,19,12,09,12.10
2018,10,19,12,10,12.10
2018,10,19,12,11,12.00
2018,10,19,12,12,12.00
2018,10,19,12,13,11.90
2018,10,19,12,14,11.90
2018,10,19,12,15,11.90
2018,10,19,12,16,11.80
2018,10,19,12,17,11.80
2018,10,19,12,18,11.80
2018,10,19,12,19,11.70
2018,10,19,12,20,11.70
2018,10,19,12,21,11.60
2018,10,19,12,22,11.60
2018,10,19,12,23,11.60
2018,10,19,12,24,11.60
2018,10,19,12,25,11.60
2018,10,19,12,26,11.70
2018,10,19,12,27,11.70
2018,10,19,12,28,11.80
2018,10,19,12,29,11.80
2018,10,19,12,30,11.80
2018,10,19,12,31,11.80
2018,10,19,12,32,11.80
2018,10,19,12,33,11.80
2018,10,19,12,34,11.90
2018,10,19,12,35,11.90
2018,10,19,12,36,12.00
2018,10,19,12,37,12.00
2018,10,19,12,38,12.00
2018,10,19,12,39,12.00
2018,10,19,12,40,12.00
2018,10,19,12,41,12.00
2018,10,19,12,42,12.00
2018,10,19,12,43,12.10
2018,10,19,12,44,12.10
2018,10,19,12,45,12.10
2018,10,19,12,46,12.10
2018,10,19,12,47,12.10
2018,10,19,12,48,12.10
2018,10,19,12,49,12.20
2018,10,19,12,50,12.20
2018,10,19,12,51,12.10
2018,10,19,12,52,12.10
2018,10,19,12,53,12.10
2018,10,19,12,54,12.10
2018,10,19,12,55,12.10
2018,10,19,12,56,12.10
2018,10,19,12,57,12.10
2018,10,19,12,58,12.10
2018,10,19,12,59,12.10
2018,10,19,13,00,12.20
2018,10,19,13,01,12.20
2018,10,19,13,02,12.20
2018,10,19,13,03,12.30
2018,10,19,13,04,12.30
2018,10,19,13,05,12.40
2018,10,19,13,06,12.50
2018,10,19,13,07,12.60
2018,10,19,13,08,12.60
2018,10,19,13,09,12.60
2018,10,19,13,10,12.70
2018,10,19,13,11,12.70
2018,10,19,13,12,12.80
2018,10,19,13,13,12.80
2018,10,19,13,14,12.80
2018,10,19,13,15,12.80
2018,10,19,13,16,12.90
2018,10,19,13,17,12.90
2018,10,19,13,18,12.90
2018,10,19,13,19,12.90
2018,10,19,13,20,12.90
2018,10,19,13,21,13.00
2018,10,19,13,22,13.00
2018,10,19,13,23,13.00
2018,10,19,13,24,13.00
2018,10,19,13,25,13.00
2018,10,19,13,26,13.10
2018,10,19,13,27,13.10
2018,10,19,13,28,13.10
2018,10,19,13,29,13.10
2018,10,19,13,30,13.10
2018,10,19,13,31,13.10
2018,10,19,13,32,13.10
2018,10,19,13,33,13.20
2018,10,19,13,34,13.20
2018,10,19,13,35,13.20
2018,10,19,13,36,13.20
2018,10,19,13,37,13.20
2018,10,19,13,38,13.20
2018,10,19,13,39,13.20
2018,10,19,13,40,13.20
2018,10,19,13,41,13.20
2018,10,19,13,42,13.20
2018,10,19,13,43,13.20
2018,10,19,13,44,13.20
2018,10,19,13,45,13.20
2018,10,19,13,46,13.20
2018,10,19,13,47,13.20
2018,10,19,13,48,13.30
2018,10,19,13,49,13.40
2018,10,19,13,50,13.40
2018,10,19,13,51,13.50
2018,10,19,13,52,13.60
2018,10,19,13,53,13.60
2018,10,19,13,54,13.70
2018,10,19,13,55,13.70
2018,10,19,13,56,13.70
2018,10,19,13,57,13.70
2018,10,19,13,58,13.70
2018,10,19,13,59,13.70
2018,10,19,14,00,13.80
2018,10,19,14,01,13.80
2018,10,19,14,02,13.80
2018,10,19,14,03,13.80
2018,10,19,14,04,13.80
2018,10,19,14,05,13.80
2018,10,19,14,06,13.90
2018,10,19,14,07,13.90
2018,10,19,14,08,13.90
2018,10,19,14,09,14.00
2018,10,19,14,10,14.00
2018,10,19,14,11,14.00
2018,10,19,14,12,14.10
2018,10,19,14,13,14.00
2018,10,19,14,14,14.00
2018,10,19,14,15,14.00
2018,10,19,14,16,14.00
2018,10,19,14,17,13.90
2018,10,19,14,18,13.90
2018,10,19,14,19,13.90
2018,10,19,14,20,13.80
2018,10,19,14,21,13.80
2018,10,19,14,22,13.90
2018,10,19,14,23,13.90
2018,10,19,14,24,13.90
2018,10,19,14,25,14.00
2018,10,19,14,26,14.00
2018,10,19,14,27,14.00
2018,10,19,14,28,14.00
2018,10,19,14,29,14.10
2018,10,19,14,30,14.10
2018,10,19,14,31,14.10
2018,10,19,14,32,14.00
2018,10,19,14,33,14.00
2018,10,19,14,34,14.00
2018,10,19,14,35,14.00
2018,10,19,14,36,14.00
2018,10,19,14,37,14.00
2018,10,19,14,38,14.10
2018,10,19,14,39,14.10
2018,10,19,14,40,14.10
2018,10,19,14,41,14.10
2018,10,19,14,42,14.20
2018,10,19,14,43,14.20
2018,10,19,14,44,14.30
2018,10,19,14,45,14.40
2018,10,19,14,46,14.40
2018,10,19,14,47,14.40
2018,10,19,14,48,14.50
2018,10,19,14,49,14.50
2018,10,19,14,50,14.50
2018,10,19,14,51,14.50
2018,10,19,14,52,14.50
2018,10,19,14,53,14.50
2018,10,19,14,54,14.50
2018,10,19,14,55,14.40
2018,10,19,14,56,14.40
2018,10,19,14,57,14.40
2018,10,19,14,58,14.40
2018,10,19,14,59,14.40
2018,10,19,15,00,14.40
2018,10,19,15,01,14.40
2018,10,19,15,02,14.40
2018,10,19,15,03,14.40
2018,10,19,15,04,14.30
2018,10,19,15,05,14.30
2018,10,19,15,06,14.30
2018,10,19,15,07,14.30
2018,10,19,15,08,14.30
2018,10,19,15,09,14.40
2018,10,19,15,10,14.40
2018,10,19,15,11,14.40
2018,10,19,15,12,14.40
2018,10,19,15,13,14.40
2018,10,19,15,14,14.50
2018,10,19,15,15,14.50
2018,10,19,15,16,14.50
2018,10,19,15,17,14.50
2018,10,19,15,18,14.60
2018,10,19,15,19,14.60
2018,10,19,15,20,14.70
2018,10,19,15,21,14.70
2018,10,19,15,22,14.70
2018,10,19,15,23,14.80
2018,10,19,15,24,14.80
2018,10,19,15,25,14.80
2018,10,19,15,26,14.90
2018,10,19,15,27,15.00
2018,10,19,15,28,15.00
2018,10,19,15,29,15.10
2018,10,19,15,30,15.10
2018,10,19,15,31,15.10
2018,10,19,15,32,15.10
2018,10,19,15,33,15.10
2018,10,19,15,34,15.10
2018,10,19,15,35,15.20
2018,10,19,15,36,15.20
2018,10,19,15,37,15.20
2018,10,19,15,38,15.30
2018,10,19,15,39,15.30
2018,10,19,15,40,15.30
2018,10,19,15,41,15.40
2018,10,19,15,42,15.40
2018,10,19,15,43,15.40
2018,10,19,15,44,15.50
2018,10,19,15,45,15.60
2018,10,19,15,46,15.60
2018,10,19,15,47,15.60
2018,10,19,15,48,15.70
2018,10,19,15,49,15.70
2018,10,19,15,50,15.70
2018,10,19,15,51,15.70
2018,10,19,15,52,15.70
2018,10,19,15,53,15.70
2018,10,19,15,54,15.70
2018,10,19,15,55,15.70
2018,10,19,15,56,15.60
2018,10,19,15,57,15.60
2018,10,19,15,58,15.60
2018,10,19,15,59,15.50
2018,10,19,16,00,15.40
2018,10,19,16,01,15.40
2018,10,19,16,02,15.30
2018,10,19,16,03,15.40
2018,10,19,16,04,15.40
2018,10,19,16,05,15.40
2018,10,19,16,06,15.40
2018,10,19,16,07,15.40
2018,10,19,16,08,15.30
2018,10,19,16,09,15.30
2018,10,19,16,10,15.40
2018,10,19,16,11,15.40
2018,10,19,16,12,15.40
2018,10,19,16,13,15.40
2018,10,19,16,14,15.40
2018,10,19,16,15,15.40
2018,10,19,16,16,15.40
2018,10,19,16,17,15.40
2018,10,19,16,18,15.40
2018,10,19,16,19,15.40
2018,10,19,16,20,15.40
2018,10,19,16,21,15.40
2018,10,19,16,22,15.40
2018,10,19,16,23,15.40
2018,10,19,16,24,15.40
2018,10,19,16,25,15.50
2018,10,19,16,26,15.50
2018,10,19,16,27,15.50
2018,10,19,16,28,15.50
2018,10,19,16,29,15.50
2018,10,19,16,30,15.40
2018,10,19,16,31,15.50
2018,10,19,16,32,15.50
2018,10,19,16,33,15.50
2018,10,19,16,34,15.50
2018,10,19,16,35,15.50
2018,10,19,16,36,15.60
2018,10,19,16,37,15.60
2018,10,19,16,38,15.60
2018,10,19,16,39,15.60
2018,10,19,16,40,15.50
2018,10,19,16,41,15.50
2018,10,19,16,42,15.50
2018,10,19,16,43,15.50
2018,10,19,16,44,15.50
2018,10,19,16,45,15.60
2018,10,19,16,46,15.60
2018,10,19,16,47,15.60
2018,10,19,16,48,15.60
2018,10,19,16,49,15.60
2018,10,19,16,50,15.70
2018,10,19,16,51,15.70
2018,10,19,16,52,15.70
2018,10,19,16,53,15.70
2018,10,19,16,54,15.70
2018,10,19,16,55,15.70
2018,10,19,16,56,15.70
2018,10,19,16,57,15.70
2018,10,19,16,58,15.70
2018,10,19,16,59,15.80
2018,10,19,17,00,15.80
2018,10,19,17,01,15.80
2018,10,19,17,02,15.80
2018,10,19,17,03,15.80
2018,10,19,17,04,15.80
2018,10,19,17,05,15.80
2018,10,19,17,06,15.80
2018,10,19,17,07,15.80
2018,10,19,17,08,15.80
2018,10,19,17,09,15.80
2018,10,19,17,10,15.80
2018,10,19,17,11,15.80
2018,10,19,17,12,15.80
2018,10,19,17,13,15.80
2018,10,19,17,14,15.80
2018,10,19,17,15,15.70
2018,10,19,17,16,15.70
2018,10,19,17,17,15.70
2018,10,19,17,18,15.70
2018,10,19,17,19,15.70
2018,10,19,17,20,15.70
2018,10,19,17,21,15.70
2018,10,19,17,22,15.70
2018,10,19,17,23,15.70
2018,10,19,17,24,15.60
2018,10,19,17,25,15.60
2018,10,19,17,26,15.60
2018,10,19,17,27,15.50
2018,10,19,17,28,15.50
2018,10,19,17,29,15.40
2018,10,19,17,30,15.40
2018,10,19,17,31,15.40
2018,10,19,17,32,15.40
2018,10,19,17,33,15.30
2018,10,19,17,34,15.30
2018,10,19,17,35,15.20
2018,10,19,17,36,15.20
2018,10,19,17,37,15.20
2018,10,19,17,38,15.10
2018,10,19,17,39,15.10
2018,10,19,17,40,15.10
2018,10,19,17,41,15.00
2018,10,19,17,42,15.00
2018,10,19,17,43,15.00
2018,10,19,17,44,14.90
2018,10,19,17,45,14.90
2018,10,19,17,46,14.90